[[{"header":{"parameterUnit":"m.s-1","parameterCategory":1,"la1":30.2991,"la2":30.254,"lo1":-89.0895,"lo2":-89.0444,"dy":0.0017,"dx":0.0017,"nx":28,"ny":28,"refTime":"2025-07-24T21:00:00:Z","depth":0,"parameterNumber":2,"parameterNumberName":"U-component_of_WINDS"},"data":[0,0,0,0,0,0,0,0,0,0,0,0,0,0,0,0,0,0,0,0,0,0,0,0,0,0,0,0,0,0,0,0,0,0,0,0,0,0,0,0,0,0,0,0,0,0,0,0,0,0,0,0,0,0,0,0,0,0,-1.6967,-1.6967,0,-1.6966,-1.6966,-1.6966,-1.6981,-1.6981,-1.6982,-1.6982,-1.6979,-1.6978,-1.6978,0,0,0,0,0,0,0,0,0,0,0,0,0,-1.698,-1.698,-1.6967,-1.6967,-1.6967,-1.6966,-1.6966,-1.6966,-1.6981,-1.6981,-1.6982,-1.6982,-1.6979,-1.6978,-1.6978,0,0,0,0,0,0,0,0,0,0,0,0,0,-1.6976,-1.698,-1.6967,-1.6974,-1.6975,-1.6966,-1.6966,-1.6966,-1.6981,-1.6981,-1.6982,-1.6983,-1.6979,-1.6979,-1.6978,-1.6961,0,0,-1.6976,-1.6975,0,0,0,0,0,0,0,0,-1.6976,-1.6976,-1.6973,-1.6974,-1.6975,-1.6974,-1.6969,-1.6964,-1.6981,-1.6979,-1.6982,-1.6983,-1.6977,-1.6976,-1.6975,-1.6961,-1.6961,-1.6976,-1.6975,-1.6975,-1.6975,0,0,0,0,0,0,0,-1.6977,-1.6976,-1.6967,-1.6973,-1.6974,-1.6977,-1.6977,-1.6968,-1.6974,-1.6979,-1.698,-1.698,-1.6977,-1.6975,-1.6975,-1.6961,-1.6976,-1.6975,-1.6974,-1.6974,-1.6932,-1.6932,0,0,0,0,0,0,-1.6976,-1.6976,-1.6967,-1.6966,-1.6977,-1.6976,-1.6977,-1.6974,-1.6974,-1.6975,-1.6979,-1.698,-1.6976,-1.6975,-1.6975,-1.6954,-1.6975,-1.6974,-1.6974,-1.6933,-1.6932,-1.6931,0,0,0,0,0,0,-1.6976,-1.6975,-1.6967,-1.6971,-1.6971,-1.6975,-1.6972,-1.6973,-1.6971,-1.6975,-1.6975,-1.6976,-1.6977,-1.6976,-1.6964,-1.6954,-1.6974,-1.6973,-1.6934,-1.6933,-1.6932,-1.6914,0,0,0,0,0,0,-1.6977,-1.6975,-1.6969,-1.6971,-1.697,-1.6957,-1.6972,-1.6973,-1.697,-1.6972,-1.6972,-1.6973,-1.6977,-1.6965,-1.6964,-1.6954,-1.6973,-1.6935,-1.6933,-1.6932,-1.6915,-1.6912,-1.691,0,0,0,0,0,-1.6977,-1.6964,-1.6969,-1.6968,-1.6963,-1.6956,-1.6956,-1.6962,-1.697,-1.6963,-1.6965,-1.6973,-1.6956,-1.6964,-1.6962,-1.6952,-1.6935,-1.6934,-1.6932,-1.6917,-1.6913,-1.691,0,0,0,0,0,0,-1.696,-1.6964,-1.697,-1.6957,-1.6956,-1.6959,-1.6951,-1.6958,-1.6954,-1.6955,-1.6963,-1.6962,-1.695,-1.695,-1.6959,-1.6935,-1.6947,-1.6945,-1.6936,-1.6932,-1.6929,-1.6929,-1.6972,0,0,0,0,0,-1.6955,-1.6949,-1.6953,-1.6942,-1.6941,-1.6946,-1.6943,-1.6948,-1.6947,-1.6947,-1.6948,-1.6946,-1.694,-1.6936,-1.6932,-1.6916,-1.6915,-1.6908,-1.6905,-1.6903,-1.6901,-1.6892,-1.6888,-1.6926,-1.6926,-1.6926,0,0,-1.6943,-1.6945,-1.6941,-1.6938,-1.6938,-1.6932,-1.6946,-1.6938,-1.6933,-1.6945,-1.6935,-1.6936,-1.6934,-1.692,-1.6914,-1.692,-1.689,-1.6901,-1.6899,-1.6898,-1.689,-1.6886,-1.6883,-1.6925,-1.6925,-1.6926,0,0,-1.692,-1.6921,-1.6911,-1.6911,-1.6911,-1.6915,-1.6912,-1.6914,-1.6915,-1.6905,-1.6914,-1.6908,-1.6898,-1.6896,-1.6894,-1.687,-1.6877,-1.6869,-1.6854,-1.6845,-1.6842,-1.6839,-1.683,-1.6826,-1.6867,-1.6867,-1.6867,0,-1.6906,-1.6897,-1.6905,-1.6897,-1.6895,-1.6907,-1.6896,-1.6896,-1.6894,-1.6892,-1.6898,-1.6886,-1.6886,-1.6872,-1.6866,-1.6865,-1.6861,-1.6868,-1.6842,-1.6839,-1.6837,-1.6828,-1.6825,-1.6866,-1.6866,-1.6866,-1.6866,0,-1.688,-1.6874,-1.6866,-1.6864,-1.6861,-1.6852,-1.6858,-1.6854,-1.6859,-1.6862,-1.6851,-1.6851,-1.6846,-1.6843,-1.6848,-1.683,-1.6833,-1.6841,-1.6852,-1.6832,-1.6824,-1.682,-1.6864,-1.6865,-1.6865,-1.6865,0,0,-1.6845,-1.6848,-1.6845,-1.6844,-1.6845,-1.684,-1.6831,-1.6827,-1.6823,-1.6822,-1.6814,-1.6806,-1.6813,-1.681,-1.6815,-1.6807,-1.6788,-1.6816,-1.6816,-1.681,-1.6766,-1.676,-1.6756,-1.6792,-1.6792,-1.6791,-1.6766,0,-1.6821,-1.6807,-1.6814,-1.6798,-1.6792,-1.6803,-1.6796,-1.6795,-1.6797,-1.6792,-1.6794,-1.6788,-1.6798,-1.6797,-1.679,-1.6791,-1.6779,-1.6793,-1.6784,-1.6783,-1.6783,-1.6752,-1.6745,-1.6721,-1.6763,-1.6762,-1.6762,0,-1.6792,-1.679,-1.6774,-1.6776,-1.6773,-1.6766,-1.6763,-1.6758,-1.6757,-1.6759,-1.6757,-1.6763,-1.6754,-1.6766,-1.6753,-1.6763,-1.676,-1.676,-1.6759,-1.6757,-1.6771,-1.6748,-1.6714,-1.671,-1.6757,-1.6758,-1.6758,0,-1.6767,-1.676,-1.6749,-1.6749,-1.6751,-1.6745,-1.6746,-1.6746,-1.6743,-1.674,-1.6738,-1.6733,-1.673,-1.6727,-1.6731,-1.674,-1.6717,-1.673,-1.6718,-1.6717,-1.6712,-1.6712,-1.6675,-1.6711,-1.6711,-1.6711,-1.6711,0,-1.674,-1.6729,-1.6738,-1.6732,-1.672,-1.6728,-1.6716,-1.6718,-1.6717,-1.6711,-1.672,-1.6713,-1.6721,-1.6714,-1.6718,-1.6706,-1.6705,-1.6706,-1.6707,-1.6704,-1.6704,-1.6701,-1.6703,-1.671,-1.671,-1.6711,-1.6711,0,-1.671,-1.6715,-1.6704,-1.6707,-1.6708,-1.6699,-1.6701,-1.6695,-1.6698,-1.6689,-1.6688,-1.6692,-1.6685,-1.669,-1.6683,-1.6686,-1.667,-1.6673,-1.667,-1.6671,-1.6658,-1.6658,-1.6617,-1.6612,-1.6652,-1.6652,-1.6651,0,-1.6692,-1.6684,-1.6686,-1.6682,-1.6683,-1.6677,-1.6674,-1.6681,-1.6678,-1.6676,-1.667,-1.6664,-1.6659,-1.6648,-1.665,-1.6645,-1.6648,-1.6634,-1.6647,-1.6645,-1.6646,-1.6646,-1.6645,-1.663,-1.663,-1.663,-1.6629,0,-1.6658,-1.6662,-1.6657,-1.6654,-1.665,-1.6648,-1.6646,-1.6642,-1.665,-1.6645,-1.6639,-1.6635,-1.6628,-1.6622,-1.6618,-1.6617,-1.6624,-1.6625,-1.6622,-1.6619,-1.6617,-1.6617,-1.6662,-1.6626,-1.6626,-1.6627,-1.6627,-1.6627,-1.6633,-1.6627,-1.6627,-1.6622,-1.6621,-1.6619,-1.6613,-1.6616,-1.6611,-1.6606,-1.6611,-1.6602,-1.6601,-1.6596,-1.6595,-1.6588,-1.6594,-1.6589,-1.6588,-1.6586,-1.6584,-1.6619,-1.6588,-1.6588,-1.6588,-1.6588,-1.6588,0,-1.66,-1.6601,-1.6596,-1.6593,-1.6589,-1.6597,-1.6595,-1.6591,-1.6583,-1.6582,-1.6578,-1.657,-1.6564,-1.6566,-1.656,-1.6554,-1.6557,-1.6552,-1.6552,-1.6552,-1.658,-1.6583,-1.655,-1.655,-1.655,-1.655,-1.655,-1.655,-1.6582,-1.6571,-1.6574,-1.6563,-1.6563,-1.6556,-1.6554,-1.6552,-1.6551,-1.6542,-1.6537,-1.6539,-1.6539,-1.6533,-1.6528,-1.6528,-1.6525,-1.6519,-1.6521,-1.6547,-1.655,-1.6554,-1.6557,-1.6519,-1.6519,-1.6493,-1.6493,-1.6493]},{"header":{"parameterUnit":"m.s-1","parameterCategory":1,"la1":30.2991,"la2":30.254,"lo1":-89.0895,"lo2":-89.0444,"dy":0.0017,"dx":0.0017,"nx":28,"ny":28,"refTime":"2025-07-24T21:00:00:Z","depth":0,"parameterNumber":3,"parameterNumberName":"V-component_of_WINDS"},"data":[0,0,0,0,0,0,0,0,0,0,0,0,0,0,0,0,0,0,0,0,0,0,0,0,0,0,0,0,0,0,0,0,0,0,0,0,0,0,0,0,0,0,0,0,0,0,0,0,0,0,0,0,0,0,0,0,0,0,4.0322,4.0322,0,4.0295,4.0295,4.0294,4.0276,4.0276,4.0276,4.0276,4.0244,4.0243,4.0243,0,0,0,0,0,0,0,0,0,0,0,0,0,4.0358,4.0357,4.0323,4.0322,4.0322,4.0295,4.0295,4.0294,4.0276,4.0276,4.0276,4.0276,4.0244,4.0244,4.0243,0,0,0,0,0,0,0,0,0,0,0,0,0,4.0337,4.0357,4.0323,4.031,4.0308,4.0295,4.0294,4.0294,4.0276,4.0276,4.0276,4.0276,4.0245,4.0244,4.0243,4.0239,0,0,4.0239,4.0239,0,0,0,0,0,0,0,0,4.0338,4.0336,4.0312,4.0311,4.0309,4.0289,4.0295,4.0275,4.0276,4.0288,4.0276,4.0276,4.0259,4.0257,4.0252,4.0237,4.0236,4.0239,4.0238,4.0238,4.0238,0,0,0,0,0,0,0,4.034,4.0337,4.0311,4.0312,4.031,4.0305,4.0302,4.0291,4.0275,4.0287,4.0286,4.0283,4.0258,4.0253,4.0251,4.0236,4.0239,4.0238,4.0237,4.0237,4.0218,4.0218,0,0,0,0,0,0,4.0344,4.0338,4.0312,4.0311,4.0324,4.0304,4.0301,4.0295,4.0275,4.0272,4.0283,4.0282,4.0255,4.0252,4.025,4.0245,4.0238,4.0237,4.0236,4.0218,4.0218,4.0218,0,0,0,0,0,0,4.0345,4.0342,4.0313,4.0324,4.032,4.0304,4.0298,4.0295,4.029,4.0272,4.0268,4.0281,4.0255,4.0251,4.0242,4.0243,4.0236,4.0235,4.0218,4.0218,4.0218,4.0234,0,0,0,0,0,0,4.0346,4.0342,4.0341,4.0324,4.032,4.0307,4.0298,4.0294,4.0288,4.0287,4.0269,4.0266,4.0254,4.0244,4.0241,4.0242,4.0235,4.0217,4.0218,4.0218,4.0234,4.0235,4.0236,0,0,0,0,0,4.0347,4.0346,4.0341,4.0338,4.0318,4.0307,4.0304,4.0292,4.0288,4.0287,4.0276,4.0266,4.0244,4.0243,4.024,4.024,4.0217,4.0218,4.0218,4.0233,4.0235,4.0236,0,0,0,0,0,0,4.0361,4.0343,4.0338,4.0331,4.0321,4.0304,4.0302,4.0294,4.0284,4.0283,4.0267,4.0263,4.0256,4.0247,4.0247,4.0236,4.0229,4.0229,4.0242,4.0244,4.0245,4.0247,4.0234,0,0,0,0,0,4.0364,4.0357,4.0342,4.0337,4.0333,4.0318,4.0313,4.0305,4.0293,4.0288,4.0276,4.0265,4.0255,4.0249,4.0239,4.0233,4.0228,4.0231,4.0232,4.0234,4.0233,4.023,4.0231,4.0219,4.0219,4.0219,0,0,4.0369,4.0358,4.0355,4.034,4.0331,4.0324,4.0315,4.0307,4.0302,4.0287,4.0278,4.0269,4.0255,4.0248,4.0244,4.024,4.0236,4.0234,4.0235,4.0234,4.0231,4.0232,4.0233,4.022,4.022,4.022,0,0,4.0374,4.0365,4.0361,4.0353,4.0341,4.0331,4.033,4.0315,4.0309,4.03,4.0289,4.0282,4.0265,4.0256,4.0249,4.0253,4.0244,4.025,4.0257,4.0254,4.0255,4.0256,4.0257,4.0258,4.025,4.025,4.025,0,4.0381,4.0371,4.036,4.0354,4.0348,4.0335,4.0331,4.0323,4.0307,4.0303,4.03,4.028,4.0269,4.026,4.0261,4.0256,4.0254,4.0252,4.0256,4.0257,4.0257,4.0259,4.0259,4.0251,4.0251,4.0251,4.0251,0,4.0381,4.0374,4.0372,4.0359,4.0353,4.0348,4.0335,4.033,4.0323,4.0314,4.0305,4.0293,4.028,4.0278,4.0269,4.0267,4.0265,4.0259,4.0252,4.0259,4.026,4.0261,4.0252,4.0252,4.0252,4.0251,0,0,4.0393,4.0375,4.0375,4.0369,4.0355,4.0349,4.0344,4.0333,4.0329,4.0319,4.0314,4.0301,4.0296,4.0288,4.0279,4.0276,4.0281,4.027,4.027,4.0273,4.0278,4.0283,4.0284,4.0275,4.0275,4.0275,4.0279,0,4.0397,4.0387,4.0377,4.0371,4.0364,4.0353,4.0348,4.0339,4.0331,4.0324,4.0314,4.0306,4.0299,4.0295,4.0291,4.0281,4.0281,4.028,4.027,4.0269,4.0274,4.0284,4.0289,4.0293,4.028,4.028,4.028,0,4.0399,4.0391,4.0385,4.0372,4.0369,4.0365,4.0355,4.0349,4.0338,4.0332,4.0325,4.0315,4.0309,4.0303,4.0294,4.0293,4.0288,4.0283,4.0283,4.0281,4.0275,4.0283,4.0294,4.0295,4.028,4.028,4.028,0,4.0409,4.0397,4.0391,4.0387,4.0372,4.037,4.0363,4.0352,4.0347,4.0338,4.0334,4.0324,4.0319,4.0311,4.03,4.0297,4.0292,4.0285,4.0286,4.0287,4.0285,4.0285,4.0296,4.0282,4.0282,4.0282,4.0282,0,4.0414,4.041,4.0396,4.0393,4.0388,4.0377,4.0373,4.0365,4.0356,4.0351,4.034,4.0335,4.0321,4.0314,4.0305,4.0299,4.0296,4.0291,4.0288,4.0292,4.0292,4.0288,4.0287,4.0282,4.0282,4.0282,4.0282,0,4.0424,4.0415,4.0408,4.0395,4.0392,4.039,4.0378,4.0374,4.0366,4.036,4.0358,4.0344,4.0336,4.0324,4.0312,4.0306,4.0301,4.0297,4.0305,4.0304,4.0306,4.0306,4.0314,4.0315,4.03,4.0301,4.0301,0,4.0428,4.0425,4.0413,4.0409,4.0403,4.0397,4.0392,4.0381,4.0376,4.0365,4.0362,4.0354,4.0346,4.0333,4.0322,4.0313,4.0309,4.0312,4.0307,4.0311,4.0309,4.0309,4.0309,4.0313,4.0314,4.0314,4.0314,0,4.0435,4.0431,4.0425,4.0417,4.0412,4.0405,4.0398,4.0395,4.0382,4.0377,4.0369,4.0364,4.0352,4.0344,4.0333,4.0326,4.0318,4.0316,4.0316,4.0319,4.0324,4.0322,4.0308,4.0315,4.0315,4.0315,4.0315,4.0315,4.0442,4.044,4.0431,4.0425,4.0418,4.0412,4.0408,4.04,4.0394,4.0384,4.0378,4.0371,4.0361,4.0346,4.034,4.0333,4.033,4.033,4.0329,4.033,4.0331,4.0325,4.0331,4.0331,4.0331,4.0331,4.0331,0,4.045,4.0444,4.0438,4.0429,4.0424,4.0418,4.041,4.0406,4.04,4.0392,4.0386,4.0377,4.0369,4.0358,4.0349,4.0346,4.0343,4.0344,4.0344,4.0343,4.0334,4.0336,4.0348,4.0348,4.0348,4.0348,4.0348,4.0348,4.0453,4.0448,4.0443,4.0436,4.043,4.0424,4.0419,4.0414,4.0407,4.0399,4.0392,4.0386,4.0377,4.0367,4.036,4.0357,4.0354,4.0357,4.0353,4.0345,4.0343,4.0342,4.0343,4.0357,4.0357,4.0362,4.0362,4.0362]}]]